GW1374 Weather Reports


Display with metric or nautical units.
time (UTC)temp
F
wind
direction
speed
MPH
gust
MPH
rain 1hr
in
rain 24hr
in
rain mn
in
humidity
%
barometer
mb
20260509210054 51 209 1.0 4.0 0.00 0.28 0.28 95 1006.8
20260509204547 51 234 1.0 4.0 0.00 0.28 0.28 95 1007.1
20260509203043 50 247 1.0 4.0 0.00 0.28 0.28 95 1007.2
20260509201546 50 193 1.0 3.0 0.00 0.28 0.28 96 1007.3
20260509200047 50 205 1.0 4.0 0.00 0.28 0.28 95 1007.4
20260509194542 50 153 1.0 3.0 0.00 0.28 0.28 95 1007.5
20260509193047 50 234 1.0 3.0 0.00 0.28 0.28 95 1007.7
20260509191543 50 239 1.0 4.0 0.00 0.28 0.28 95 1007.7
20260509190047 50 168 1.0 4.0 0.00 0.28 0.28 95 1007.8
20260509184543 49 221 1.0 4.0 0.00 0.28 0.28 95 1007.9
20260509183041 49 227 1.0 3.0 0.00 0.28 0.28 95 1007.8
20260509181541 49 205 1.0 3.0 0.00 0.28 0.28 95 1007.8
20260509180047 49 227 1.0 4.0 0.00 0.28 0.28 95 1007.8
20260509174542 49 215 1.0 4.0 0.00 0.28 0.28 95 1007.8
20260509173108 49 221 1.0 5.0 0.00 0.28 0.28 96 1007.8
20260509171545 49 221 0.0 3.0 0.00 0.28 0.28 95 1007.7
20260509170053 49 221 0.0 2.0 0.01 0.28 0.28 95 1007.6
20260509164554 48 205 0.0 3.0 0.01 0.28 0.28 95 1007.8
20260509163048 48 178 1.0 3.0 0.01 0.28 0.28 95 1007.8
20260509161544 48 162 1.0 3.0 0.01 0.28 0.28 95 1008.0
20260509160047 49 221 1.0 3.0 0.01 0.27 0.27 95 1008.1
20260509154548 48 162 1.0 3.0 0.01 0.27 0.27 95 1008.3
20260509153049 49 185 1.0 4.0 0.02 0.27 0.27 95 1008.1
20260509151605 49 171 1.0 3.0 0.03 0.27 0.27 96 1008.4
20260509150053 48 150 1.0 4.0 0.03 0.26 0.26 96 1008.7
20260509144545 48 229 1.0 4.0 0.04 0.26 0.26 96 1008.8
20260509143054 48 187 1.0 3.0 0.04 0.25 0.25 96 1008.8
20260509141552 47 153 1.0 2.0 0.04 0.24 0.24 96 1008.9
20260509140049 47 227 1.0 2.0 0.04 0.23 0.23 96 1008.9
20260509134548 47 238 1.0 2.0 0.05 0.22 0.22 96 1008.8
20260509133041 47 238 1.0 2.0 0.05 0.21 0.21 96 1009.0
20260509131558 46 243 1.0 2.0 0.07 0.20 0.20 96 1009.0
20260509130108 46 190 1.0 3.0 0.08 0.19 0.19 95 1009.1
20260509124544 46 193 0.0 2.0 0.07 0.17 0.17 95 1009.1
20260509123115 46 0 0.0 2.0 0.08 0.16 0.16 95 1009.2
20260509121545 46 0 0.0 2.0 0.08 0.13 0.13 95 1009.3
20260509120050 45 0 0.0 2.0 0.08 0.11 0.11 95 1009.4
20260509114606 45 178 0.0 2.0 0.09 0.10 0.10 95 1009.4
20260509113040 45 196 1.0 2.0 0.08 0.08 0.08 95 1009.4
20260509111542 45 215 0.0 2.0 0.05 0.05 0.05 95 1009.5
20260509110046 45 221 0.0 2.0 0.03 0.03 0.03 95 1009.2
20260509104544 45 0 0.0 2.0 0.01 0.01 0.01 95 1009.1
20260509103044 44 221 0.0 2.0 0.00 0.00 0.00 94 1009.1
20260509101553 45 221 0.0 3.0 0.00 0.00 0.00 94 1009.2
20260509100047 45 243 0.0 2.0 0.00 0.00 0.00 94 1008.9
20260509094554 44 0 0.0 2.0 0.00 0.00 0.00 94 1009.0
20260509093049 44 178 0.0 2.0 0.00 0.00 0.00 93 1009.0
20260509091550 44 221 0.0 2.0 0.00 0.00 0.00 93 1009.2
20260509090046 44 0 0.0 2.0 0.00 0.00 0.00 93 1009.2
20260509084556 44 205 0.0 2.0 0.00 0.00 0.00 93 1009.3
20260509083043 43 193 1.0 4.0 0.00 0.00 0.00 92 1009.4
20260509081556 43 178 0.0 2.0 0.00 0.00 0.00 90 1009.5
20260509080054 43 221 1.0 3.0 0.00 0.00 0.00 88 1009.7
20260509074545 43 221 0.0 2.0 0.00 0.00 0.00 88 1009.5
20260509073046 43 0 0.0 2.0 0.00 0.00 0.00 87 1009.6
20260509071551 43 0 0.0 1.0 0.00 0.00 0.00 85 1009.4
20260509070050 42 0 0.0 2.0 0.00 0.00 0.00 80 1009.4
20260509064553 42 119 0.0 2.0 0.00 0.00 0.00 79 1009.5
20260509063047 43 165 0.0 2.0 0.00 0.00 0.00 77 1009.7
20260509061600 43 0 0.0 2.0 0.00 0.00 0.00 76 1009.9
20260509060048 44 178 1.0 2.0 0.00 0.00 0.00 73 1010.2
20260509054605 44 51 0.0 2.0 0.00 0.00 0.00 71 1010.2
20260509053055 44 119 0.0 2.0 0.00 0.00 0.00 69 1010.5
20260509051549 44 119 0.0 2.0 0.00 0.00 0.00 69 1010.4
20260509050052 44 131 0.0 2.0 0.00 0.00 0.00 67 1010.2
20260509044545 44 0 0.0 2.0 0.00 0.00 0.00 67 1010.4
20260509043041 45 115 1.0 2.0 0.00 0.00 0.00 66 1010.4
20260509041542 45 126 0.0 2.0 0.00 0.00 0.00 64 1010.5
20260509040045 45 0 0.0 2.0 0.00 0.00 0.00 64 1010.4
20260509034541 45 105 1.0 2.0 0.00 0.00 0.00 63 1010.3
20260509033045 45 105 1.0 2.0 0.00 0.00 0.00 63 1010.3
20260509031604 45 93 1.0 2.0 0.00 0.00 0.00 64 1010.4
20260509030050 46 93 0.0 2.0 0.00 0.00 0.00 65 1010.7
20260509024541 46 115 1.0 2.0 0.00 0.00 0.00 62 1010.9
20260509023041 47 110 1.0 3.0 0.00 0.00 0.00 61 1010.8
20260509021548 47 115 1.0 3.0 0.00 0.00 0.00 60 1010.7
20260509020049 47 115 1.0 2.0 0.00 0.00 0.00 60 1010.9
20260509014544 47 126 0.0 2.0 0.00 0.00 0.00 60 1010.8
20260509013042 48 142 1.0 3.0 0.00 0.00 0.00 60 1010.7
20260509011541 48 126 0.0 2.0 0.00 0.00 0.00 61 1010.4
20260509010049 48 0 1.0 3.0 0.00 0.00 0.00 60 1010.0
20260509004542 49 115 1.0 2.0 0.00 0.00 0.00 58 1009.9
20260509003047 49 105 1.0 2.0 0.00 0.00 0.00 57 1009.8
20260509001544 49 0 1.0 2.0 0.00 0.00 0.00 56 1009.8
20260509000045 50 0 0.0 1.0 0.00 0.00 0.00 52 1009.7
20260508234548 51 0 0.0 1.0 0.00 0.00 0.00 53 1009.7
20260508233053 51 93 1.0 2.0 0.00 0.00 0.00 51 1009.5
20260508231543 51 83 1.0 2.0 0.00 0.00 0.00 52 1009.5
20260508230122 52 83 0.0 3.0 0.00 0.00 0.00 53 1009.4
20260508224553 52 51 0.0 3.0 0.00 0.00 0.00 52 1009.3
20260508223049 53 162 1.0 3.0 0.00 0.00 0.00 49 1009.2
20260508221547 53 47 1.0 4.0 0.00 0.00 0.00 50 1009.1
20260508220113 53 20 2.0 6.0 0.00 0.00 0.00 48 1009.3
20260508214556 53 76 1.0 4.0 0.00 0.00 0.00 50 1009.4
20260508213053 53 51 0.0 6.0 0.00 0.00 0.00 50 1009.6
20260508211548 53 18 2.0 7.0 0.00 0.00 0.00 51 1009.5